| time (UTC) | temp C | wind direction | speed KPH | gust KPH | rain 1hr cm | rain 24hr cm | rain mn cm | humidity % | barometer mb |
| 20260906141404 | 20 | 326 | 6.4 | 20.9 | 0.00 | 0.00 | 0.00 | 52 | 1014.1 |
| 20260906140904 | 20 | 290 | 8.0 | 19.3 | 0.00 | 0.00 | 0.00 | 50 | 1014.1 |
| 20260906140404 | 21 | 329 | 9.7 | 16.1 | 0.00 | 0.00 | 0.00 | 52 | 1014.0 |
| 20260906135905 | 21 | 233 | 8.0 | 16.1 | 0.00 | 0.00 | 0.00 | 52 | 1014.0 |
| 20260906135404 | 20 | 286 | 6.4 | 14.5 | 0.00 | 0.00 | 0.00 | 53 | 1014.0 |
| 20260906134905 | 20 | 300 | 11.3 | 17.7 | 0.00 | 0.00 | 0.00 | 52 | 1014.0 |
| 20260906134405 | 20 | 283 | 11.3 | 17.7 | 0.00 | 0.00 | 0.00 | 52 | 1014.0 |
| 20260906133905 | 20 | 330 | 4.8 | 16.1 | 0.00 | 0.00 | 0.00 | 54 | 1014.0 |
| 20260906133624 | 20 | 272 | 8.0 | 16.1 | 0.00 | 0.00 | 0.00 | 54 | 1013.9 |
| 20260906132905 | 20 | 305 | 3.2 | 16.1 | 0.00 | 0.00 | 0.00 | 54 | 1013.9 |
| 20260906132406 | 20 | 261 | 9.7 | 17.7 | 0.00 | 0.00 | 0.00 | 53 | 1013.9 |
| 20260906131905 | 20 | 321 | 11.3 | 17.7 | 0.00 | 0.00 | 0.00 | 53 | 1013.9 |
| 20260906131404 | 20 | 316 | 9.7 | 22.5 | 0.00 | 0.00 | 0.00 | 52 | 1013.8 |
| 20260906130905 | 20 | 278 | 8.0 | 22.5 | 0.00 | 0.00 | 0.00 | 51 | 1013.9 |
| 20260906130409 | 20 | 276 | 11.3 | 22.5 | 0.00 | 0.00 | 0.00 | 51 | 1013.8 |
| 20260906125904 | 20 | 310 | 11.3 | 20.9 | 0.00 | 0.00 | 0.00 | 51 | 1013.9 |
| 20260906125403 | 20 | 269 | 14.5 | 20.9 | 0.00 | 0.00 | 0.00 | 50 | 1013.9 |
| 20260906125349 | 20 | 305 | 12.9 | 20.9 | 0.00 | 0.00 | 0.00 | 50 | 1013.9 |
| 20260906124403 | 20 | 303 | 9.7 | 22.5 | 0.00 | 0.00 | 0.00 | 50 | 1013.9 |
| 20260906123903 | 20 | 258 | 17.7 | 22.5 | 0.00 | 0.00 | 0.00 | 50 | 1013.8 |
| 20260906123404 | 20 | 295 | 6.4 | 19.3 | 0.00 | 0.00 | 0.00 | 53 | 1013.9 |
| 20260906122904 | 20 | 248 | 11.3 | 19.3 | 0.00 | 0.00 | 0.00 | 54 | 1013.8 |
| 20260906122404 | 20 | 288 | 6.4 | 22.5 | 0.00 | 0.00 | 0.00 | 55 | 1013.8 |
| 20260906121904 | 20 | 298 | 14.5 | 22.5 | 0.00 | 0.00 | 0.00 | 54 | 1013.8 |
| 20260906121405 | 20 | 255 | 9.7 | 19.3 | 0.00 | 0.00 | 0.00 | 57 | 1013.8 |
| 20260906120904 | 20 | 313 | 9.7 | 19.3 | 0.00 | 0.00 | 0.00 | 57 | 1013.9 |
| 20260906120404 | 20 | 312 | 8.0 | 14.5 | 0.00 | 0.00 | 0.00 | 59 | 1013.9 |
| 20260906120130 | 19 | 317 | 6.4 | 17.7 | 0.00 | 0.00 | 0.00 | 60 | 1013.8 |
| 20260906115405 | 19 | 313 | 9.7 | 17.7 | 0.00 | 0.00 | 0.00 | 59 | 1013.8 |
| 20260906115123 | 19 | 303 | 9.7 | 17.7 | 0.00 | 0.00 | 0.00 | 60 | 1013.8 |
| 20260906114629 | 19 | 276 | 9.7 | 17.7 | 0.00 | 0.00 | 0.00 | 61 | 1013.8 |
| 20260906113905 | 19 | 289 | 11.3 | 16.1 | 0.00 | 0.00 | 0.00 | 62 | 1013.7 |
| 20260906113405 | 19 | 327 | 6.4 | 16.1 | 0.00 | 0.00 | 0.00 | 62 | 1013.6 |
| 20260906112905 | 19 | 292 | 3.2 | 22.5 | 0.00 | 0.00 | 0.00 | 61 | 1013.6 |
| 20260906112405 | 19 | 298 | 14.5 | 22.5 | 0.00 | 0.00 | 0.00 | 61 | 1013.6 |
| 20260906111905 | 19 | 314 | 9.7 | 14.5 | 0.00 | 0.00 | 0.00 | 62 | 1013.6 |
| 20260906111405 | 19 | 310 | 8.0 | 14.5 | 0.00 | 0.00 | 0.00 | 61 | 1013.5 |
| 20260906111125 | 19 | 320 | 6.4 | 11.3 | 0.00 | 0.00 | 0.00 | 62 | 1013.6 |
| 20260906110625 | 18 | 298 | 4.8 | 14.5 | 0.00 | 0.00 | 0.00 | 66 | 1013.4 |
| 20260906105905 | 18 | 338 | 9.7 | 14.5 | 0.00 | 0.00 | 0.00 | 65 | 1013.4 |
| 20260906105405 | 18 | 285 | 6.4 | 17.7 | 0.00 | 0.00 | 0.00 | 64 | 1013.4 |
| 20260906105127 | 18 | 262 | 9.7 | 17.7 | 0.00 | 0.00 | 0.00 | 67 | 1013.4 |
| 20260906104405 | 18 | 314 | 6.4 | 17.7 | 0.00 | 0.00 | 0.00 | 66 | 1013.3 |
| 20260906103905 | 18 | 329 | 11.3 | 17.7 | 0.00 | 0.00 | 0.00 | 66 | 1013.4 |
| 20260906103406 | 18 | 330 | 12.9 | 19.3 | 0.00 | 0.00 | 0.00 | 63 | 1013.3 |
| 20260906102905 | 18 | 295 | 12.9 | 19.3 | 0.00 | 0.00 | 0.00 | 64 | 1013.2 |
| 20260906102405 | 18 | 312 | 3.2 | 17.7 | 0.00 | 0.00 | 0.00 | 64 | 1013.2 |
| 20260906101905 | 18 | 307 | 6.4 | 17.7 | 0.00 | 0.00 | 0.00 | 66 | 1013.2 |
| 20260906101409 | 18 | 302 | 6.4 | 16.1 | 0.00 | 0.00 | 0.00 | 65 | 1013.0 |
| 20260906101405 | 18 | 282 | 6.4 | 16.1 | 0.00 | 0.00 | 0.00 | 64 | 1013.1 |
| 20260906100405 | 18 | 319 | 8.0 | 16.1 | 0.00 | 0.00 | 0.00 | 67 | 1013.0 |
| 20260906095905 | 18 | 20 | 6.4 | 16.1 | 0.00 | 0.00 | 0.00 | 67 | 1013.0 |
| 20260906095404 | 18 | 266 | 8.0 | 14.5 | 0.00 | 0.00 | 0.00 | 71 | 1013.0 |
| 20260906094904 | 17 | 299 | 6.4 | 14.5 | 0.00 | 0.00 | 0.00 | 71 | 1012.9 |
| 20260906094405 | 17 | 279 | 9.7 | 16.1 | 0.00 | 0.00 | 0.00 | 71 | 1013.0 |
| 20260906094129 | 17 | 288 | 11.3 | 16.1 | 0.00 | 0.00 | 0.00 | 70 | 1012.9 |
| 20260906093627 | 17 | 300 | 9.7 | 16.1 | 0.00 | 0.00 | 0.00 | 70 | 1012.9 |
| 20260906092904 | 17 | 327 | 8.0 | 17.7 | 0.00 | 0.00 | 0.00 | 70 | 1012.8 |
| 20260906092405 | 17 | 300 | 6.4 | 22.5 | 0.00 | 0.00 | 0.00 | 71 | 1012.9 |
| 20260906091904 | 17 | 300 | 6.4 | 22.5 | 0.00 | 0.00 | 0.00 | 72 | 1012.8 |
| 20260906091405 | 17 | 323 | 4.8 | 16.1 | 0.00 | 0.00 | 0.00 | 71 | 1012.7 |
| 20260906091131 | 17 | 313 | 9.7 | 16.1 | 0.00 | 0.00 | 0.00 | 71 | 1012.7 |
| 20260906090405 | 17 | 327 | 9.7 | 14.5 | 0.00 | 0.00 | 0.00 | 72 | 1012.6 |
| 20260906085904 | 17 | 262 | 6.4 | 11.3 | 0.00 | 0.00 | 0.00 | 74 | 1012.5 |
| 20260906085404 | 16 | 340 | 4.8 | 16.1 | 0.00 | 0.00 | 0.00 | 74 | 1012.6 |
| 20260906084905 | 16 | 319 | 9.7 | 17.7 | 0.00 | 0.00 | 0.00 | 74 | 1012.6 |
| 20260906084405 | 16 | 321 | 12.9 | 17.7 | 0.00 | 0.00 | 0.00 | 75 | 1012.5 |
| 20260906084132 | 16 | 293 | 11.3 | 16.1 | 0.00 | 0.00 | 0.00 | 77 | 1012.4 |
| 20260906083404 | 16 | 324 | 6.4 | 16.1 | 0.00 | 0.00 | 0.00 | 77 | 1012.4 |
| 20260906082905 | 16 | 298 | 8.0 | 16.1 | 0.00 | 0.00 | 0.00 | 77 | 1012.4 |
| 20260906082405 | 16 | 298 | 8.0 | 16.1 | 0.00 | 0.00 | 0.00 | 76 | 1012.3 |
| 20260906081905 | 16 | 271 | 8.0 | 14.5 | 0.00 | 0.00 | 0.00 | 78 | 1012.3 |
| 20260906081621 | 16 | 310 | 3.2 | 17.7 | 0.00 | 0.00 | 0.00 | 79 | 1012.3 |
| 20260906080905 | 15 | 306 | 9.7 | 17.7 | 0.00 | 0.00 | 0.00 | 79 | 1012.2 |
| 20260906080601 | 15 | 338 | 11.3 | 19.3 | 0.00 | 0.00 | 0.00 | 79 | 1012.2 |
| 20260906075405 | 15 | 316 | 11.3 | 20.9 | 0.00 | 0.00 | 0.00 | 80 | 1012.1 |
| 20260906074905 | 15 | 299 | 9.7 | 19.3 | 0.00 | 0.00 | 0.00 | 81 | 1011.9 |
| 20260906074405 | 15 | 326 | 8.0 | 19.3 | 0.00 | 0.00 | 0.00 | 80 | 1011.9 |
| 20260906073905 | 15 | 320 | 8.0 | 19.3 | 0.00 | 0.00 | 0.00 | 81 | 1012.0 |
| 20260906073405 | 15 | 314 | 12.9 | 19.3 | 0.00 | 0.00 | 0.00 | 81 | 1011.9 |
| 20260906072905 | 15 | 285 | 6.4 | 17.7 | 0.00 | 0.00 | 0.00 | 83 | 1011.7 |
| 20260906072405 | 15 | 295 | 12.9 | 17.7 | 0.00 | 0.00 | 0.00 | 83 | 1011.7 |
| 20260906071905 | 15 | 317 | 8.0 | 20.9 | 0.00 | 0.00 | 0.00 | 84 | 1011.6 |
| 20260906071405 | 14 | 289 | 9.7 | 20.9 | 0.00 | 0.00 | 0.00 | 84 | 1011.7 |
| 20260906070905 | 14 | 264 | 8.0 | 17.7 | 0.00 | 0.00 | 0.00 | 85 | 1011.6 |
| 20260906070418 | 14 | 286 | 9.7 | 17.7 | 0.00 | 0.00 | 0.00 | 86 | 1011.6 |
| 20260906065905 | 14 | 262 | 9.7 | 19.3 | 0.00 | 0.00 | 0.00 | 87 | 1011.5 |
| 20260906065405 | 14 | 303 | 8.0 | 19.3 | 0.00 | 0.00 | 0.00 | 87 | 1011.4 |
| 20260906064905 | 13 | 295 | 11.3 | 17.7 | 0.00 | 0.00 | 0.00 | 88 | 1011.4 |
| 20260906064404 | 13 | 285 | 9.7 | 17.7 | 0.00 | 0.00 | 0.00 | 90 | 1011.3 |
| 20260906063905 | 13 | 290 | 8.0 | 16.1 | 0.00 | 0.00 | 0.00 | 91 | 1011.2 |
| 20260906063624 | 13 | 293 | 6.4 | 16.1 | 0.00 | 0.00 | 0.00 | 92 | 1011.2 |
| 20260906062904 | 13 | 290 | 6.4 | 11.3 | 0.00 | 0.00 | 0.00 | 93 | 1011.2 |
| 20260906062626 | 13 | 264 | 4.8 | 14.5 | 0.00 | 0.00 | 0.00 | 94 | 1011.1 |
| 20260906062128 | 12 | 279 | 8.0 | 14.5 | 0.00 | 0.00 | 0.00 | 95 | 1011.1 |
| 20260906061403 | 12 | 290 | 6.4 | 11.3 | 0.00 | 0.00 | 0.00 | 95 | 1011.0 |
| 20260906060903 | 12 | 274 | 4.8 | 8.0 | 0.00 | 0.00 | 0.00 | 95 | 1010.9 |
| 20260906060416 | 12 | 289 | 6.4 | 8.0 | 0.00 | 0.00 | 0.00 | 95 | 1010.9 |
| 20260906055904 | 12 | 245 | 4.8 | 8.0 | 0.00 | 0.00 | 0.00 | 95 | 1010.9 |
| 20260906055405 | 12 | 303 | 4.8 | 11.3 | 0.00 | 0.00 | 0.00 | 95 | 1010.9 |
| 20260906054904 | 12 | 296 | 6.4 | 11.3 | 0.00 | 0.00 | 0.00 | 95 | 1010.8 |
| 20260906054630 | 11 | 289 | 6.4 | 8.0 | 0.00 | 0.00 | 0.00 | 95 | 1010.8 |
| 20260906053904 | 11 | 298 | 3.2 | 8.0 | 0.00 | 0.00 | 0.00 | 95 | 1010.7 |
| 20260906053404 | 11 | 299 | 4.8 | 8.0 | 0.00 | 0.00 | 0.00 | 95 | 1010.6 |
| 20260906052918 | 11 | 282 | 3.2 | 11.3 | 0.00 | 0.00 | 0.00 | 94 | 1010.6 |
| 20260906052405 | 11 | 285 | 6.4 | 11.3 | 0.00 | 0.00 | 0.00 | 94 | 1010.6 |
| 20260906051905 | 11 | 296 | 3.2 | 6.4 | 0.00 | 0.00 | 0.00 | 94 | 1010.6 |
| 20260906051418 | 11 | 289 | 0.0 | 8.0 | 0.00 | 0.00 | 0.00 | 95 | 1010.5 |
| 20260906050905 | 11 | 289 | 3.2 | 8.0 | 0.00 | 0.00 | 0.00 | 95 | 1010.4 |
| 20260906050418 | 11 | 298 | 1.6 | 6.4 | 0.00 | 0.00 | 0.00 | 94 | 1010.5 |
| 20260906045905 | 11 | 303 | 3.2 | 8.0 | 0.00 | 0.00 | 0.00 | 94 | 1010.3 |
| 20260906045404 | 11 | 307 | 3.2 | 8.0 | 0.00 | 0.00 | 0.00 | 95 | 1010.1 |
| 20260906044905 | 11 | 303 | 3.2 | 6.4 | 0.00 | 0.00 | 0.00 | 94 | 1010.2 |
| 20260906044405 | 11 | 298 | 3.2 | 6.4 | 0.00 | 0.00 | 0.00 | 94 | 1010.3 |
| 20260906043905 | 10 | 293 | 3.2 | 6.4 | 0.00 | 0.00 | 0.00 | 94 | 1010.2 |
| 20260906043406 | 10 | 298 | 1.6 | 3.2 | 0.00 | 0.00 | 0.00 | 94 | 1010.1 |
| 20260906042905 | 10 | 298 | 1.6 | 3.2 | 0.00 | 0.00 | 0.00 | 94 | 1010.0 |
| 20260906042405 | 10 | 298 | 0.0 | 3.2 | 0.00 | 0.00 | 0.00 | 94 | 1010.0 |
| 20260906041905 | 10 | 298 | 0.0 | 4.8 | 0.00 | 0.00 | 0.00 | 94 | 1009.9 |
| 20260906041404 | 10 | 298 | 1.6 | 4.8 | 0.00 | 0.00 | 0.00 | 94 | 1009.9 |
| 20260906040905 | 10 | 299 | 1.6 | 4.8 | 0.00 | 0.00 | 0.00 | 94 | 1009.8 |
| 20260906040845 | 10 | 298 | 1.6 | 6.4 | 0.00 | 0.00 | 0.00 | 94 | 1009.8 |
| 20260906035905 | 10 | 298 | 0.0 | 6.4 | 0.00 | 0.00 | 0.00 | 94 | 1009.8 |
| 20260906035627 | 10 | 303 | 3.2 | 6.4 | 0.00 | 0.00 | 0.00 | 94 | 1009.8 |
| 20260906034905 | 10 | 306 | 1.6 | 3.2 | 0.00 | 0.00 | 0.00 | 94 | 1009.8 |
| 20260906034404 | 10 | 306 | 1.6 | 3.2 | 0.00 | 0.00 | 0.00 | 94 | 1009.6 |
| 20260906033905 | 10 | 306 | 1.6 | 4.8 | 0.00 | 0.00 | 0.00 | 93 | 1009.6 |
| 20260906033404 | 10 | 306 | 1.6 | 6.4 | 0.00 | 0.00 | 0.00 | 93 | 1009.6 |
| 20260906033123 | 10 | 306 | 1.6 | 6.4 | 0.00 | 0.00 | 0.00 | 93 | 1009.4 |
| 20260906032404 | 10 | 305 | 3.2 | 4.8 | 0.00 | 0.00 | 0.00 | 93 | 1009.4 |
| 20260906031905 | 10 | 306 | 1.6 | 4.8 | 0.00 | 0.00 | 0.00 | 93 | 1009.3 |
| 20260906031404 | 10 | 306 | 3.2 | 4.8 | 0.00 | 0.00 | 0.00 | 93 | 1009.3 |
| 20260906030904 | 10 | 312 | 3.2 | 3.2 | 0.00 | 0.00 | 0.00 | 93 | 1009.2 |
| 20260906030628 | 10 | 312 | 1.6 | 3.2 | 0.00 | 0.00 | 0.00 | 93 | 1009.0 |
| 20260906025905 | 10 | 316 | 0.0 | 3.2 | 0.00 | 0.00 | 0.00 | 93 | 1009.1 |
| 20260906025404 | 10 | 316 | 0.0 | 4.8 | 0.00 | 0.00 | 0.00 | 93 | 1009.0 |
| 20260906024904 | 10 | 316 | 1.6 | 4.8 | 0.00 | 0.00 | 0.00 | 93 | 1009.0 |
| 20260906024404 | 10 | 290 | 1.6 | 4.8 | 0.00 | 0.00 | 0.00 | 93 | 1008.9 |
| 20260906023904 | 10 | 316 | 1.6 | 4.8 | 0.00 | 0.00 | 0.00 | 93 | 1008.8 |
| 20260906023405 | 10 | 313 | 1.6 | 8.0 | 0.00 | 0.00 | 0.00 | 93 | 1008.8 |
| 20260906022904 | 10 | 330 | 1.6 | 8.0 | 0.00 | 0.00 | 0.00 | 93 | 1008.6 |
| 20260906022631 | 10 | 316 | 3.2 | 4.8 | 0.00 | 0.00 | 0.00 | 93 | 1008.5 |
| 20260906021906 | 10 | 310 | 1.6 | 6.4 | 0.00 | 0.00 | 0.00 | 93 | 1008.5 |
| 20260906021405 | 10 | 324 | 3.2 | 6.4 | 0.00 | 0.00 | 0.00 | 92 | 1008.5 |
| 20260906020905 | 10 | 0 | 3.2 | 4.8 | 0.00 | 0.00 | 0.00 | 92 | 1008.5 |
| 20260906020404 | 10 | 0 | 3.2 | 3.2 | 0.00 | 0.00 | 0.00 | 92 | 1008.5 |
| 20260906015904 | 10 | 0 | 1.6 | 3.2 | 0.00 | 0.00 | 0.00 | 92 | 1008.4 |
| 20260906015404 | 10 | 0 | 1.6 | 3.2 | 0.00 | 0.00 | 0.00 | 92 | 1008.4 |
| 20260906014904 | 10 | 0 | 1.6 | 3.2 | 0.00 | 0.00 | 0.00 | 92 | 1008.4 |
| 20260906014405 | 10 | 0 | 0.0 | 0.0 | 0.00 | 0.00 | 0.00 | 92 | 1008.3 |
| 20260906013905 | 10 | 0 | 0.0 | 0.0 | 0.00 | 0.00 | 0.00 | 91 | 1008.3 |
| 20260906013626 | 10 | 0 | 0.0 | 0.0 | 0.00 | 0.00 | 0.00 | 91 | 1008.2 |
| 20260906012905 | 10 | 0 | 0.0 | 0.0 | 0.00 | 0.00 | 0.00 | 91 | 1008.2 |
| 20260906012404 | 10 | 0 | 0.0 | 0.0 | 0.00 | 0.00 | 0.00 | 91 | 1008.1 |
| 20260906011905 | 10 | 0 | 0.0 | 0.0 | 0.00 | 0.00 | 0.00 | 91 | 1008.0 |
| 20260906011405 | 10 | 0 | 0.0 | 0.0 | 0.00 | 0.00 | 0.00 | 91 | 1007.9 |
| 20260906010905 | 10 | 0 | 0.0 | 0.0 | 0.00 | 0.00 | 0.00 | 91 | 1007.9 |
| 20260906010405 | 10 | 0 | 0.0 | 0.0 | 0.00 | 0.00 | 0.00 | 90 | 1007.8 |
| 20260906005905 | 10 | 0 | 0.0 | 1.6 | 0.00 | 0.00 | 0.00 | 90 | 1007.7 |
| 20260906005404 | 11 | 0 | 0.0 | 1.6 | 0.00 | 0.00 | 0.00 | 90 | 1007.7 |
| 20260906004905 | 11 | 0 | 0.0 | 3.2 | 0.00 | 0.00 | 0.00 | 90 | 1007.7 |
| 20260906004405 | 11 | 0 | 0.0 | 3.2 | 0.00 | 0.00 | 0.00 | 89 | 1007.6 |
| 20260906003904 | 11 | 0 | 0.0 | 1.6 | 0.00 | 0.00 | 0.00 | 90 | 1007.5 |
| 20260906003404 | 11 | 0 | 0.0 | 0.0 | 0.00 | 0.00 | 0.00 | 89 | 1007.4 |
| 20260906002905 | 11 | 0 | 0.0 | 0.0 | 0.00 | 0.00 | 0.00 | 89 | 1007.4 |
| 20260906002405 | 11 | 0 | 0.0 | 1.6 | 0.00 | 0.00 | 0.00 | 89 | 1007.4 |
| 20260906002133 | 11 | 0 | 0.0 | 3.2 | 0.00 | 0.00 | 0.00 | 89 | 1007.2 |
| 20260906001406 | 11 | 0 | 0.0 | 4.8 | 0.00 | 0.00 | 0.00 | 89 | 1007.2 |
| 20260906000905 | 11 | 0 | 1.6 | 4.8 | 0.00 | 0.00 | 0.00 | 89 | 1007.0 |
| 20260906000405 | 11 | 0 | 0.0 | 6.4 | 0.00 | 0.00 | 0.00 | 89 | 1006.9 |
| 20260905235904 | 11 | 0 | 3.2 | 6.4 | 0.00 | 0.00 | 0.00 | 89 | 1006.8 |
| 20260905235841 | 11 | 0 | 0.0 | 4.8 | 0.00 | 0.00 | 0.00 | 89 | 1006.7 |
| 20260905234905 | 11 | 0 | 1.6 | 6.4 | 0.00 | 0.00 | 0.00 | 89 | 1006.7 |
| 20260905234405 | 11 | 0 | 3.2 | 6.4 | 0.00 | 0.00 | 0.00 | 88 | 1006.7 |
| 20260905233905 | 12 | 0 | 3.2 | 6.4 | 0.00 | 0.00 | 0.00 | 88 | 1006.6 |
| 20260905233625 | 12 | 0 | 3.2 | 8.0 | 0.00 | 0.00 | 0.00 | 88 | 1006.5 |
| 20260905232902 | 12 | 10 | 3.2 | 8.0 | 0.00 | 0.00 | 0.00 | 88 | 1006.5 |
| 20260905232402 | 12 | 0 | 1.6 | 4.8 | 0.00 | 0.00 | 0.00 | 88 | 1006.5 |
| 20260905232122 | 12 | 0 | 1.6 | 4.8 | 0.00 | 0.00 | 0.00 | 88 | 1006.5 |
| 20260905231403 | 12 | 0 | 1.6 | 4.8 | 0.00 | 0.00 | 0.00 | 88 | 1006.3 |
| 20260905230902 | 12 | 0 | 3.2 | 8.0 | 0.00 | 0.00 | 0.00 | 88 | 1006.3 |
| 20260905230403 | 12 | 0 | 3.2 | 8.0 | 0.00 | 0.00 | 0.00 | 88 | 1006.2 |
| 20260905225902 | 12 | 24 | 1.6 | 8.0 | 0.00 | 0.00 | 0.00 | 88 | 1006.1 |
| 20260905225402 | 12 | 24 | 4.8 | 8.0 | 0.00 | 0.00 | 0.00 | 88 | 1006.0 |
| 20260905224903 | 12 | 35 | 3.2 | 11.3 | 0.00 | 0.00 | 0.00 | 88 | 1005.9 |
| 20260905224402 | 12 | 0 | 4.8 | 11.3 | 0.00 | 0.00 | 0.00 | 88 | 1006.0 |
| 20260905223902 | 12 | 0 | 4.8 | 9.7 | 0.00 | 0.00 | 0.00 | 88 | 1005.8 |
| 20260905223402 | 12 | 17 | 1.6 | 9.7 | 0.00 | 0.00 | 0.00 | 88 | 1005.7 |
| 20260905222902 | 12 | 4 | 3.2 | 4.8 | 0.00 | 0.00 | 0.00 | 88 | 1005.7 |
| 20260905222403 | 12 | 353 | 1.6 | 6.4 | 0.00 | 0.00 | 0.00 | 88 | 1005.7 |
| 20260905221904 | 12 | 0 | 1.6 | 6.4 | 0.00 | 0.00 | 0.00 | 87 | 1005.5 |
| 20260905221403 | 12 | 0 | 1.6 | 6.4 | 0.00 | 0.00 | 0.00 | 87 | 1005.5 |
| 20260905220903 | 12 | 8 | 4.8 | 6.4 | 0.00 | 0.00 | 0.00 | 87 | 1005.4 |
| 20260905220627 | 12 | 0 | 4.8 | 6.4 | 0.00 | 0.00 | 0.00 | 87 | 1005.3 |
| 20260905215904 | 12 | 8 | 3.2 | 8.0 | 0.00 | 0.00 | 0.00 | 87 | 1005.2 |
| 20260905215403 | 12 | 7 | 4.8 | 8.0 | 0.00 | 0.00 | 0.00 | 86 | 1005.2 |
| 20260905214904 | 12 | 0 | 3.2 | 8.0 | 0.00 | 0.00 | 0.00 | 86 | 1005.1 |
| 20260905214404 | 12 | 348 | 4.8 | 8.0 | 0.00 | 0.00 | 0.00 | 86 | 1005.1 |
| 20260905213903 | 12 | 23 | 4.8 | 8.0 | 0.00 | 0.00 | 0.00 | 86 | 1005.1 |
| 20260905213404 | 12 | 11 | 3.2 | 9.7 | 0.00 | 0.00 | 0.00 | 85 | 1005.0 |
| 20260905212904 | 12 | 4 | 3.2 | 9.7 | 0.00 | 0.00 | 0.00 | 85 | 1004.9 |
| 20260905212405 | 12 | 45 | 6.4 | 9.7 | 0.00 | 0.00 | 0.00 | 85 | 1004.9 |
| 20260905211903 | 12 | 25 | 3.2 | 9.7 | 0.00 | 0.00 | 0.00 | 85 | 1004.8 |
| 20260905211403 | 12 | 25 | 3.2 | 9.7 | 0.00 | 0.00 | 0.00 | 84 | 1004.8 |
| 20260905210903 | 12 | 28 | 4.8 | 11.3 | 0.00 | 0.00 | 0.00 | 84 | 1004.7 |
| 20260905210404 | 12 | 3 | 6.4 | 11.3 | 0.00 | 0.00 | 0.00 | 84 | 1004.7 |
| 20260905205905 | 13 | 8 | 4.8 | 9.7 | 0.00 | 0.00 | 0.00 | 84 | 1004.6 |
| 20260905205405 | 13 | 24 | 6.4 | 9.7 | 0.00 | 0.00 | 0.00 | 84 | 1004.5 |
| 20260905204904 | 13 | 34 | 6.4 | 9.7 | 0.00 | 0.00 | 0.00 | 83 | 1004.4 |
| 20260905204405 | 13 | 7 | 4.8 | 11.3 | 0.00 | 0.00 | 0.00 | 83 | 1004.3 |
| 20260905204348 | 13 | 0 | 6.4 | 17.7 | 0.00 | 0.00 | 0.00 | 83 | 1004.3 |
| 20260905203405 | 13 | 0 | 4.8 | 17.7 | 0.00 | 0.00 | 0.00 | 83 | 1004.2 |
| 20260905202906 | 13 | 23 | 4.8 | 14.5 | 0.00 | 0.00 | 0.00 | 83 | 1004.1 |
| 20260905202405 | 13 | 27 | 6.4 | 14.5 | 0.00 | 0.00 | 0.00 | 83 | 1004.0 |
| 20260905201904 | 13 | 32 | 3.2 | 8.0 | 0.00 | 0.00 | 0.00 | 83 | 1004.0 |
| 20260905201629 | 13 | 0 | 1.6 | 9.7 | 0.00 | 0.00 | 0.00 | 83 | 1004.0 |
| 20260905200905 | 13 | 358 | 6.4 | 9.7 | 0.00 | 0.00 | 0.00 | 83 | 1004.0 |
| 20260905200404 | 12 | 355 | 3.2 | 6.4 | 0.00 | 0.00 | 0.00 | 84 | 1003.9 |
| 20260905195904 | 12 | 18 | 1.6 | 8.0 | 0.00 | 0.00 | 0.00 | 84 | 1003.9 |
| 20260905195405 | 12 | 348 | 3.2 | 8.0 | 0.00 | 0.00 | 0.00 | 84 | 1003.9 |
| 20260905195129 | 12 | 338 | 1.6 | 4.8 | 0.00 | 0.00 | 0.00 | 84 | 1003.7 |
| 20260905194405 | 13 | 343 | 3.2 | 6.4 | 0.00 | 0.00 | 0.00 | 84 | 1003.6 |
| 20260905193904 | 13 | 0 | 3.2 | 6.4 | 0.00 | 0.00 | 0.00 | 84 | 1003.6 |
| 20260905193405 | 13 | 338 | 3.2 | 6.4 | 0.00 | 0.00 | 0.00 | 84 | 1003.5 |
| 20260905193350 | 13 | 330 | 4.8 | 8.0 | 0.00 | 0.00 | 0.00 | 83 | 1003.5 |
| 20260905192405 | 13 | 309 | 3.2 | 8.0 | 0.00 | 0.00 | 0.00 | 83 | 1003.5 |
| 20260905191905 | 13 | 326 | 3.2 | 6.4 | 0.00 | 0.00 | 0.00 | 83 | 1003.4 |
| 20260905191404 | 13 | 330 | 4.8 | 6.4 | 0.00 | 0.00 | 0.00 | 83 | 1003.3 |
| 20260905191127 | 13 | 299 | 3.2 | 8.0 | 0.00 | 0.00 | 0.00 | 83 | 1003.3 |
| 20260905190405 | 13 | 300 | 3.2 | 8.0 | 0.00 | 0.00 | 0.00 | 83 | 1003.2 |
| 20260905185905 | 13 | 316 | 4.8 | 8.0 | 0.00 | 0.00 | 0.00 | 83 | 1003.2 |
| 20260905185404 | 13 | 314 | 3.2 | 6.4 | 0.00 | 0.00 | 0.00 | 83 | 1003.2 |
| 20260905184905 | 13 | 320 | 4.8 | 6.4 | 0.00 | 0.00 | 0.00 | 84 | 1003.0 |
| 20260905184404 | 13 | 312 | 3.2 | 6.4 | 0.00 | 0.00 | 0.00 | 84 | 1003.0 |
| 20260905184123 | 13 | 299 | 3.2 | 3.2 | 0.00 | 0.00 | 0.00 | 84 | 1002.9 |
| 20260905183842 | 13 | 298 | 1.6 | 3.2 | 0.00 | 0.00 | 0.00 | 85 | 1002.9 |
| 20260905183351 | 13 | 299 | 1.6 | 3.2 | 0.00 | 0.00 | 0.00 | 85 | 1002.9 |
| 20260905182856 | 13 | 298 | 0.0 | 1.6 | 0.00 | 0.00 | 0.00 | 85 | 1002.8 |
| 20260905181904 | 13 | 298 | 0.0 | 1.6 | 0.00 | 0.00 | 0.00 | 84 | 1002.8 |
| 20260905181405 | 13 | 299 | 0.0 | 0.0 | 0.00 | 0.00 | 0.00 | 83 | 1002.7 |
| 20260905180905 | 13 | 299 | 0.0 | 0.0 | 0.00 | 0.00 | 0.00 | 83 | 1002.7 |
| 20260905180845 | 13 | 299 | 0.0 | 0.0 | 0.00 | 0.00 | 0.00 | 83 | 1002.7 |
| 20260905180131 | 14 | 299 | 0.0 | 0.0 | 0.00 | 0.00 | 0.00 | 82 | 1002.6 |
| 20260905175404 | 14 | 299 | 0.0 | 0.0 | 0.00 | 0.00 | 0.00 | 82 | 1002.5 |
| 20260905174905 | 14 | 298 | 0.0 | 0.0 | 0.00 | 0.00 | 0.00 | 81 | 1002.4 |
| 20260905174404 | 14 | 299 | 0.0 | 0.0 | 0.00 | 0.00 | 0.00 | 81 | 1002.4 |
| 20260905173904 | 15 | 299 | 0.0 | 0.0 | 0.00 | 0.00 | 0.00 | 80 | 1002.3 |
| 20260905173404 | 15 | 299 | 0.0 | 3.2 | 0.00 | 0.00 | 0.00 | 79 | 1002.2 |
| 20260905172904 | 15 | 299 | 0.0 | 3.2 | 0.00 | 0.00 | 0.00 | 78 | 1002.1 |
| 20260905172404 | 15 | 299 | 1.6 | 1.6 | 0.00 | 0.00 | 0.00 | 77 | 1002.1 |
| 20260905171905 | 16 | 299 | 0.0 | 1.6 | 0.00 | 0.00 | 0.00 | 77 | 1002.0 |
| 20260905171405 | 16 | 299 | 0.0 | 1.6 | 0.00 | 0.00 | 0.00 | 76 | 1001.9 |
| 20260905170905 | 16 | 299 | 0.0 | 0.0 | 0.00 | 0.00 | 0.00 | 77 | 1002.0 |
| 20260905170405 | 16 | 299 | 0.0 | 1.6 | 0.00 | 0.00 | 0.00 | 77 | 1001.9 |
| 20260905165905 | 16 | 299 | 1.6 | 3.2 | 0.00 | 0.00 | 0.00 | 76 | 1001.9 |
| 20260905165404 | 16 | 299 | 0.0 | 3.2 | 0.00 | 0.00 | 0.00 | 76 | 1001.8 |
| 20260905164904 | 16 | 299 | 0.0 | 3.2 | 0.00 | 0.00 | 0.00 | 76 | 1001.8 |
| 20260905164405 | 16 | 299 | 0.0 | 3.2 | 0.00 | 0.00 | 0.00 | 78 | 1001.6 |
| 20260905163905 | 16 | 299 | 0.0 | 0.0 | 0.00 | 0.00 | 0.00 | 79 | 1001.5 |
| 20260905163404 | 16 | 299 | 0.0 | 0.0 | 0.00 | 0.00 | 0.00 | 80 | 1001.5 |
| 20260905162905 | 15 | 299 | 0.0 | 0.0 | 0.00 | 0.00 | 0.00 | 80 | 1001.5 |
| 20260905162404 | 15 | 299 | 0.0 | 0.0 | 0.00 | 0.00 | 0.00 | 80 | 1001.4 |
| 20260905161904 | 15 | 299 | 0.0 | 0.0 | 0.00 | 0.00 | 0.00 | 80 | 1001.3 |
| 20260905161405 | 15 | 299 | 0.0 | 3.2 | 0.00 | 0.00 | 0.00 | 80 | 1001.3 |
| 20260905160904 | 15 | 299 | 0.0 | 3.2 | 0.00 | 0.00 | 0.00 | 80 | 1001.3 |
| 20260905160405 | 15 | 299 | 0.0 | 4.8 | 0.00 | 0.00 | 0.00 | 79 | 1001.3 |
| 20260905155904 | 15 | 299 | 1.6 | 6.4 | 0.00 | 0.00 | 0.00 | 79 | 1001.2 |
| 20260905155404 | 15 | 299 | 3.2 | 6.4 | 0.00 | 0.00 | 0.00 | 79 | 1001.2 |
| 20260905154905 | 15 | 298 | 4.8 | 6.4 | 0.00 | 0.00 | 0.00 | 78 | 1001.1 |
| 20260905154404 | 15 | 310 | 1.6 | 4.8 | 0.00 | 0.00 | 0.00 | 77 | 1001.0 |
| 20260905153904 | 15 | 310 | 3.2 | 6.4 | 0.00 | 0.00 | 0.00 | 77 | 1001.0 |
| 20260905153405 | 15 | 307 | 3.2 | 8.0 | 0.00 | 0.00 | 0.00 | 77 | 1000.9 |
| 20260905152904 | 15 | 314 | 4.8 | 8.0 | 0.00 | 0.00 | 0.00 | 76 | 1000.9 |
| 20260905152404 | 15 | 300 | 3.2 | 6.4 | 0.00 | 0.00 | 0.00 | 76 | 1000.9 |
| 20260905151905 | 15 | 319 | 3.2 | 6.4 | 0.00 | 0.00 | 0.00 | 77 | 1000.8 |
| 20260905151404 | 15 | 306 | 4.8 | 6.4 | 0.00 | 0.00 | 0.00 | 77 | 1000.8 |
| 20260905151130 | 15 | 314 | 4.8 | 9.7 | 0.00 | 0.00 | 0.00 | 77 | 1000.8 |
| 20260905150404 | 15 | 299 | 4.8 | 9.7 | 0.00 | 0.00 | 0.00 | 78 | 1000.8 |
| 20260905150123 | 15 | 293 | 4.8 | 8.0 | 0.00 | 0.00 | 0.00 | 77 | 1000.7 |
| 20260905145405 | 15 | 317 | 3.2 | 8.0 | 0.00 | 0.00 | 0.00 | 79 | 1000.6 |
| 20260905144917 | 14 | 314 | 4.8 | 11.3 | 0.00 | 0.00 | 0.00 | 79 | 1000.6 |
| 20260905144628 | 14 | 290 | 3.2 | 11.3 | 0.00 | 0.00 | 0.00 | 78 | 1000.6 |
| 20260905143904 | 15 | 316 | 6.4 | 11.3 | 0.00 | 0.00 | 0.00 | 77 | 1000.6 |
| 20260905143633 | 15 | 310 | 4.8 | 14.5 | 0.00 | 0.00 | 0.00 | 77 | 1000.6 |
| 20260905142905 | 15 | 295 | 4.8 | 14.5 | 0.00 | 0.00 | 0.00 | 77 | 1000.5 |
| 20260905142405 | 15 | 338 | 9.7 | 20.9 | 0.00 | 0.00 | 0.00 | 74 | 1000.5 |
| 20260905142146 | 16 | 351 | 12.9 | 22.5 | 0.00 | 0.00 | 0.00 | 73 | 1000.3 |